Regional Weather Roundup
Issued by NWS

Home | Current Version | Previous Version | Text Only | Print | Product List | Glossary Off
Versions: 1 2 3 4 5 6 7 8 9 10 11 12 13 14 15 16 17 18 19 20 21 22 23 24 25 26 27 28 29 30 31 32 33 34 35 36 37 38 39 40 41 42 43 44 45 46 47 48 49 50

000
ASUS45 KCYS 271510
RWRWY

WYOMING REGIONAL WEATHER ROUNDUP
NATIONAL WEATHER SERVICE CHEYENNE WY
900 AM MDT WED JUL 27 2016

NOTE:  "FAIR" INDICATES FEW OR NO CLOUDS BELOW 12,000 FEET
WITH NO SIGNIFICANT WEATHER AND/OR OBSTRUCTIONS TO VISIBILITY.

WYZ001-271600-
YELLOWSTONE NATIONAL PARK

CITY           SKY/WX    TMP DP  RH WIND       PRES   REMARKS
LK YELLOWSTONE   N/A     56  46  69 VRB3      30.41S
W YELLOWSTONE  NOT AVBL

$$
WYZ002>013-054>058-071-098>099-271600-
NORTHERN WYOMING

CITY           SKY/WX    TMP DP  RH WIND       PRES   REMARKS
JACKSON        SUNNY     57  36  44 CALM      30.33R
CODY           FAIR      70  45  40 SW3       30.22R
GREYBULL       FAIR      73  48  41 CALM      30.14R
WORLAND        FAIR      71  49  45 SW5       30.16S
SHERIDAN       FAIR      73  54  51 VRB3      30.14S
BUFFALO        FAIR      71  50  47 SE7       30.20S
GILLETTE       FAIR      73  52  47 S9        30.16S
HULETT         FAIR      68  57  68 N5        30.17R
NEWCASTLE      FAIR      68  54  60 CALM      30.17R

$$
WYZ014>020-022>026-101>103-271600-
CENTRAL WYOMING

CITY           SKY/WX    TMP DP  RH WIND       PRES   REMARKS
BIG PINEY      CLOUDY    58  31  35 SE3       30.34S
PINEDALE       FAIR      57  36  44 NW6       30.35S HAZE
DUBOIS         HAZE      59  34  38 NW8       30.35S VSB 1
LANDER         FAIR      72  46  39 N6        30.23S
RIVERTON       FAIR      71  47  42 VRB5      30.24R
CASPER         FAIR      69  54  58 S3        30.22R
DOUGLAS          N/A    N/A N/A N/A MISG      30.22F

$$
WYZ021-027>030-104>119-271600-
SOUTHERN WYOMING

CITY           SKY/WX    TMP DP  RH WIND       PRES   REMARKS
EVANSTON       FAIR      68  27  21 SW9       30.34S
KEMMERER         N/A     64  32  29 N7        30.35S
FORT BRIDGER   FAIR      75  27  16 W6        30.35R
ROCK SPRINGS   FAIR      65  32  29 N3        30.32R
DIXON          FAIR      66  40  38 SE5       30.33R
RAWLINS        FAIR      69  37  30 VRB3      30.30S
SARATOGA       FAIR      70  41  35 E9        30.32S
LARAMIE        FAIR      69  41  36 E8        30.33S
CHEYENNE       FAIR      66  53  63 N10       30.29F
TORRINGTON     FAIR      69  59  70 E14       30.17F
PINE BLUFFS    FAIR      64  55  72 NE5       30.24S

$$



USA.gov is the U.S. government's official web portal to all federal, state and local government web resources and services.